RH
14 13 15 38 58 67 71 70 77 83 85 88 93 95 97 98 94 95 94 91 85 83 85 80 75 77 78 69 63 57 53 52 51 60 55 44 38 30 29 27 27 24 19 17 18 18 16 14 15 19 17 15 18 19 20 20 20 20 18 17 16 16 19 22 26 28 28 27 26 26 27 29 29 28 28 28 27 24 20 16 14 14 16 17 17 18 22 27 30 32 34 33 30 27 30 29 20
14 11 20 48 65 71 71 70 74 79 83 86 93 98 99 96 95 98 92 88 84 81 85 78 73 72 67 63 58 47 49 55 45 47 49 43 40 31 24 25 27 23 18 17 17 17 14 12 14 16 16 16 19 21 21 21 20 19 18 17 17 18 20 22 25 26 26 25 25 27 29 29 28 28 29 29 29 27 24 20 16 14 15 17 18 20 22 26 29 32 35 32 27 29 29 21 13
20 10 27 54 68 72 71 71 70 74 82 80 87 97 97 96 96 96 92 90 86 83 84 76 68 68 63 58 57 48 47 53 45 39 40 37 39 33 22 23 26 20 17 17 18 17 13 11 12 13 15 18 20 22 22 22 21 20 19 19 19 20 20 22 24 24 24 24 24 27 28 29 27 28 29 30 31 30 27 24 20 17 16 17 19 22 24 27 31 34 34 30 29 30 22 14 13
37 20 32 58 67 69 68 70 69 72 83 84 90 95 93 97 96 92 95 90 81 82 82 72 64 66 60 51 53 50 48 53 48 34 30 32 31 29 23 24 23 18 17 17 18 17 13 11 11 14 17 20 21 22 23 22 22 22 22 22 23 23 24 25 25 26 27 27 27 28 30 30 29 30 31 32 32 31 30 27 24 22 21 21 22 25 28 29 34 36 32 30 30 23 14 13 15
51 35 37 56 65 68 68 69 73 76 85 93 95 93 94 98 96 93 95 90 83 81 78 73 63 64 59 48 48 46 46 52 52 34 24 31 29 27 27 26 24 18 17 17 19 17 12 11 11 14 17 20 22 23 24 24 25 25 26 27 27 27 28 29 29 29 29 30 30 31 32 32 32 34 36 37 37 35 33 31 29 28 26 25 25 27 29 30 34 35 30 29 25 15 13 17 21
57 50 48 55 62 67 68 71 76 81 86 94 93 89 96 99 95 93 93 91 88 81 78 73 54 53 60 52 47 45 44 43 51 38 21 32 33 31 33 31 27 19 17 18 19 18 13 10 11 14 17 20 23 24 26 27 27 28 29 29 30 30 31 31 30 28 28 29 29 31 31 31 33 34 36 38 41 42 40 37 35 33 31 30 29 29 31 33 34 32 29 26 18 12 15 22 30
61 60 58 59 62 65 68 74 78 82 89 94 92 90 94 98 95 92 94 92 84 77 75 67 47 48 58 53 50 48 43 33 42 38 22 31 34 32 36 36 30 19 17 19 20 19 13 10 11 13 17 20 23 26 29 30 30 30 28 29 32 33 30 29 26 25 25 25 26 28 27 26 26 27 30 33 38 42 42 41 40 39 38 36 34 33 33 34 33 30 27 21 13 14 22 30 39
63 65 66 67 67 71 74 79 81 80 90 96 94 93 94 98 96 91 93 93 85 79 73 63 49 50 56 52 50 50 43 31 32 31 24 29 30 32 38 34 25 18 18 20 21 19 14 10 11 13 17 20 24 29 33 34 32 30 26 29 33 31 27 24 21 20 20 22 25 24 23 22 20 21 23 26 31 36 39 41 42 43 42 39 36 34 33 33 32 30 24 16 13 20 29 37 42
67 69 72 75 75 85 89 88 85 79 89 96 94 95 95 98 98 92 89 90 89 82 69 58 50 49 56 55 50 48 42 32 28 26 26 30 30 32 35 27 17 17 18 20 22 19 14 10 11 13 16 21 26 31 34 33 30 27 25 27 29 26 22 20 17 14 14 15 19 20 20 20 18 18 18 21 29 36 40 40 40 41 42 40 37 34 32 33 33 28 19 13 15 24 31 38 42
72 74 77 83 84 93 97 94 89 84 90 94 91 92 94 94 95 95 91 86 86 77 61 54 52 46 52 58 51 44 40 33 29 27 27 26 26 28 28 21 15 16 18 21 23 20 14 10 11 12 16 23 28 32 34 31 29 27 23 22 22 21 17 14 13 11 9 9 13 16 17 18 18 18 18 22 33 44 47 44 42 42 43 40 35 33 32 34 33 25 15 13 18 26 31 35 39
71 75 82 86 88 93 93 91 90 88 92 95 90 89 94 93 92 99 94 84 79 70 61 56 54 48 51 60 51 40 39 34 31 34 32 22 18 21 20 18 17 16 18 21 23 21 15 10 11 11 16 26 29 31 32 31 31 26 19 17 16 15 12 9 10 9 8 8 11 16 20 21 21 21 22 27 39 51 54 51 48 46 45 41 36 33 33 35 32 22 14 13 18 26 31 34 36
66 73 83 84 84 91 90 87 91 92 93 97 93 91 95 96 96 101 95 86 78 68 66 61 53 50 51 56 48 39 38 35 34 37 36 25 16 15 17 17 17 17 17 20 24 22 16 10 11 11 16 27 32 31 30 32 32 24 15 13 11 9 7 8 9 9 9 10 14 19 21 20 20 24 28 34 43 51 55 54 53 50 47 43 38 34 36 36 30 20 13 12 15 20 26 31 33
63 69 80 83 83 87 87 84 89 93 93 94 96 94 91 94 98 99 95 90 81 71 69 62 53 49 48 51 44 39 39 35 35 34 31 26 18 15 17 18 17 18 17 19 23 22 16 10 11 11 15 29 35 32 32 32 30 21 12 10 8 7 8 10 11 11 10 9 11 14 13 11 15 24 30 37 43 49 52 53 54 53 48 44 41 39 39 35 27 19 14 12 13 14 17 22 28
61 67 77 82 83 82 84 84 84 89 92 91 97 95 88 92 99 98 97 92 82 75 70 60 54 49 46 48 43 40 40 35 34 30 25 22 19 15 16 19 18 19 18 19 23 22 16 10 10 10 15 29 35 34 35 32 27 21 12 9 7 8 11 15 16 16 14 10 8 7 7 8 12 20 28 32 36 42 48 51 53 51 46 42 41 40 37 32 26 20 15 15 15 15 15 16 22
60 64 72 77 77 78 84 84 78 86 93 92 96 96 93 97 98 97 97 93 88 80 70 59 51 47 45 44 41 41 41 37 33 30 25 20 16 14 17 19 19 19 17 19 23 23 16 9 10 10 14 27 32 33 35 32 26 21 15 10 8 10 14 18 19 20 19 17 12 8 7 8 10 18 24 25 28 35 42 47 48 47 42 39 38 35 31 28 26 23 20 21 21 19 18 17 19
60 60 65 68 68 71 82 83 78 86 91 91 96 95 93 96 97 98 97 94 91 80 68 61 53 46 45 42 39 40 40 38 33 29 27 21 15 14 17 19 19 19 17 18 22 24 16 9 10 9 14 25 29 29 32 30 24 19 16 11 8 10 15 20 22 22 23 23 18 13 12 11 10 14 19 20 21 27 36 41 43 42 39 36 34 32 29 27 27 26 25 25 24 22 19 19 21
61 61 60 59 60 64 76 80 81 89 89 87 94 95 93 96 98 97 96 92 88 81 72 67 60 54 49 45 42 39 37 35 32 30 28 23 17 14 16 18 19 19 18 17 19 24 17 8 9 9 13 23 26 25 27 26 19 16 14 9 7 10 18 25 27 27 27 27 24 20 18 16 13 13 15 14 15 19 27 34 38 38 38 35 33 32 29 26 26 26 25 25 24 23 21 22 25
63 63 58 55 57 59 68 75 80 90 92 90 95 96 94 98 97 92 94 91 85 82 77 69 62 60 55 50 45 39 36 33 32 31 31 28 19 14 16 17 18 19 18 16 16 23 18 8 8 9 13 22 24 23 24 22 15 13 11 7 5 10 23 31 32 30 29 30 28 24 20 18 15 13 12 10 10 13 18 25 31 34 35 35 34 32 31 29 28 27 26 25 24 25 26 27 30
65 63 58 56 58 58 64 69 76 86 92 96 97 95 93 93 93 91 92 89 83 78 74 68 60 58 58 53 46 39 36 34 33 32 32 34 25 16 16 16 17 18 18 16 14 21 20 9 7 9 13 19 22 22 22 18 12 11 9 5 6 16 30 34 31 28 27 29 27 21 17 16 17 15 13 13 12 13 16 21 27 32 33 34 33 32 33 32 31 31 30 29 29 29 30 32 33
63 62 59 58 56 56 60 63 75 88 91 95 93 93 95 92 92 92 88 82 79 74 69 67 59 56 57 53 49 42 38 37 36 34 31 35 34 24 17 15 17 18 18 17 13 19 21 10 6 9 12 17 21 22 21 17 11 9 9 9 13 24 33 32 27 25 24 25 23 20 20 21 22 21 22 23 22 22 24 24 25 29 32 32 31 31 32 32 32 32 31 31 31 32 33 33 32
57 58 55 55 53 53 57 58 73 83 83 89 88 90 95 94 93 89 85 78 73 70 67 65 56 51 54 54 52 47 41 40 39 35 30 31 36 31 20 16 17 17 18 17 12 18 21 12 7 9 11 15 19 20 19 16 11 7 13 19 23 28 33 31 27 27 29 28 26 27 31 31 29 29 29 28 25 24 27 28 23 21 24 24 24 26 27 27 28 27 26 27 28 29 30 28 27
50 49 47 48 47 48 52 54 71 76 76 89 88 87 93 95 92 86 82 76 71 67 64 63 55 49 51 51 51 49 44 41 40 37 32 29 32 32 22 15 17 17 18 16 12 18 23 15 8 9 11 14 18 19 18 16 10 9 17 21 23 30 33 29 26 30 33 33 35 38 39 36 35 35 32 30 27 22 22 23 19 13 14 16 18 20 22 21 21 21 20 21 21 20 21 21 21
42 40 39 42 41 45 50 53 69 75 78 92 90 85 90 95 93 87 81 79 80 74 67 67 60 52 48 46 46 48 45 43 42 38 34 30 30 32 22 16 16 16 17 15 12 18 23 17 10 9 10 14 16 18 18 14 10 13 19 18 21 31 31 26 25 32 35 34 38 44 46 44 43 36 30 27 24 22 21 20 16 12 12 13 14 15 17 18 17 17 16 16 16 14 13 14 14
37 34 33 35 36 43 50 50 62 72 81 91 88 83 87 92 94 93 86 86 90 82 78 78 67 57 49 43 44 46 47 45 44 40 36 32 30 30 23 17 16 15 17 14 13 18 21 18 13 10 10 13 16 18 19 13 11 16 18 17 22 30 27 22 24 31 37 36 34 38 45 50 46 36 30 27 22 20 20 18 12 11 12 11 12 13 14 15 15 15 15 14 13 12 10 9 9
36 35 33 32 30 36 41 43 51 64 77 80 76 79 87 89 89 94 91 85 88 83 80 76 64 58 52 46 44 44 47 44 43 41 35 32 29 27 22 18 15 14 16 12 13 19 20 17 14 12 11 12 15 17 20 15 13 17 17 16 21 24 22 20 23 27 31 32 29 30 37 43 41 35 34 30 23 18 17 15 9 7 8 8 12 14 13 13 14 14 14 14 12 11 10 9 9
32 32 30 28 26 28 31 36 44 53 68 72 69 76 85 88 86 93 93 84 87 83 73 64 56 55 50 47 44 41 44 42 43 41 34 31 27 23 21 18 15 13 14 12 13 18 18 13 13 14 12 12 14 16 20 18 15 16 14 15 19 20 19 19 21 25 28 30 29 29 29 29 29 30 32 30 24 19 18 16 10 8 7 7 10 12 12 12 12 13 13 13 11 10 10 10 9
23 23 23 24 23 25 25 29 36 43 60 69 70 78 82 85 88 92 93 86 83 78 71 65 56 52 48 44 40 38 43 44 44 42 35 31 26 22 20 18 16 13 13 12 13 18 17 10 11 15 13 13 14 14 18 19 15 14 11 13 19 19 18 18 19 24 28 30 30 29 26 23 21 24 30 31 27 23 20 14 8 8 8 7 8 8 11 12 12 12 11 11 10 10 9 10 10
17 20 24 26 26 28 25 28 34 37 55 66 69 80 79 78 87 90 91 88 81 78 80 76 61 54 50 43 40 40 44 47 46 43 37 31 26 22 21 19 16 14 13 13 13 18 16 8 10 15 15 16 16 14 15 17 15 13 11 14 19 19 17 17 19 23 26 28 30 30 28 25 23 22 26 29 27 24 20 13 9 9 9 8 7 6 8 11 12 11 10 10 9 8 8 8 8
10 16 20 25 33 34 25 27 35 34 49 61 61 73 78 75 82 85 86 87 85 81 80 79 68 58 53 47 44 44 48 49 47 46 38 30 27 24 23 19 16 14 13 13 12 17 16 8 10 16 20 24 23 19 16 15 15 13 15 18 19 19 17 17 20 22 23 23 26 30 30 29 28 25 24 25 27 24 18 14 11 10 10 9 7 6 5 8 10 11 11 10 9 8 7 7 7
4 8 11 20 35 39 29 27 33 34 43 50 46 59 75 74 75 78 79 78 82 81 74 75 73 63 56 52 49 49 52 49 43 43 38 31 28 25 25 20 15 14 12 13 12 15 15 8 9 16 25 31 25 22 19 15 14 15 18 21 20 18 16 17 20 20 20 19 23 29 31 32 33 30 25 24 26 24 19 16 12 10 11 9 7 7 6 6 7 9 10 10 10 8 7 7 6
2 3 5 14 29 42 44 35 29 36 47 45 39 48 58 58 63 71 73 72 77 82 73 70 72 67 60 56 53 53 53 49 38 36 35 32 31 27 26 22 16 13 12 12 11 14 15 9 8 12 25 35 26 19 21 17 15 16 19 21 20 18 16 18 21 19 18 18 22 27 29 33 36 34 29 26 25 23 19 16 14 13 13 10 8 8 8 7 6 7 8 9 9 8 8 8 7
2 2 3 9 26 44 51 43 31 37 47 44 42 46 47 47 52 55 61 66 70 77 74 67 68 69 64 60 58 56 55 51 38 34 37 34 32 29 27 23 17 13 11 12 12 13 15 10 7 8 17 30 26 17 19 18 14 17 21 21 20 17 15 18 20 17 16 18 22 26 26 31 37 36 32 29 25 22 18 17 18 20 16 11 10 10 9 8 7 7 7 7 8 8 8 8 8
2 2 3 6 24 41 47 46 39 40 49 50 49 50 49 50 54 56 61 65 64 74 77 69 65 66 65 64 63 61 59 54 40 35 43 41 34 31 29 25 20 13 10 11 12 13 14 10 7 7 9 19 21 15 15 14 12 17 22 22 19 17 16 18 18 16 17 18 20 24 25 30 35 33 30 29 24 23 24 23 22 22 17 13 13 14 11 8 7 7 7 8 8 8 8 8 8
3 3 3 3 14 28 38 46 43 42 53 59 55 53 55 57 59 63 66 66 66 73 76 69 65 64 65 66 66 65 62 58 46 35 37 39 35 32 31 27 22 15 9 10 12 12 14 10 5 6 7 11 14 11 10 8 9 17 23 22 18 15 16 18 18 18 19 19 18 20 24 31 34 31 30 30 28 30 32 29 25 22 18 15 15 14 12 8 7 7 7 7 7 7 7 7 7
5 3 3 2 5 13 23 39 45 45 52 55 49 49 56 60 61 60 62 73 79 76 74 70 70 71 69 66 66 67 64 60 55 41 32 32 33 30 30 28 24 18 10 9 12 12 14 10 5 6 6 8 10 8 7 4 9 19 24 23 18 14 15 17 19 20 19 17 16 18 25 33 35 32 32 31 32 34 34 32 29 23 17 13 11 10 9 8 7 7 6 6 6 6 7 7 7
6 4 3 2 2 4 11 27 41 44 44 42 39 40 49 58 65 66 65 74 80 76 75 74 77 79 71 63 62 63 64 64 61 49 33 29 33 30 28 29 25 19 12 8 11 11 12 9 5 6 5 7 9 6 5 4 11 21 24 23 18 14 15 18 20 19 18 16 14 18 26 34 35 32 32 33 37 38 36 34 30 23 16 10 8 8 8 7 7 6 5 6 6 6 7 7 7
9 7 4 3 2 2 4 13 32 42 36 31 29 29 40 52 62 68 66 65 68 72 75 77 79 78 68 59 56 55 60 63 62 55 38 28 30 28 27 28 25 21 14 9 10 10 10 7 5 6 5 7 7 5 4 4 12 20 21 20 17 14 15 18 20 19 18 15 14 19 28 33 33 32 33 35 40 43 41 37 29 22 15 11 11 12 10 8 7 7 6 7 6 6 7 7 7
11 9 8 6 3 4 2 9 33 47 38 36 35 26 30 45 55 64 67 65 68 71 76 81 79 75 68 59 55 57 61 62 63 61 47 31 28 29 29 29 26 23 17 10 8 9 8 6 5 5 5 6 6 4 4 5 12 18 17 16 14 14 16 18 19 20 18 15 14 20 28 32 34 37 38 34 35 40 42 36 28 22 16 13 14 14 12 9 8 8 7 7 7 6 7 7 7
11 11 10 8 7 5 2 11 33 46 46 52 50 33 29 40 49 58 66 70 74 75 78 82 78 72 68 61 56 57 59 62 65 66 55 36 30 35 33 30 27 23 20 13 8 8 7 5 5 5 5 5 5 4 4 5 11 16 16 14 13 14 17 18 19 20 17 14 14 21 28 32 35 40 40 33 30 34 38 36 33 30 22 16 14 11 10 8 7 8 7 7 7 7 6 6 6
12 12 11 9 9 7 8 20 33 42 52 54 47 40 45 54 53 56 68 72 73 76 73 71 71 72 68 60 55 54 61 70 71 70 63 40 33 42 37 30 26 22 21 18 11 8 8 5 4 5 5 5 5 4 4 6 9 14 15 13 13 14 16 19 20 19 17 13 14 22 29 31 33 37 36 30 27 31 34 34 32 28 23 20 16 11 9 7 7 7 6 6 6 6 6 6 5
11 12 13 11 10 8 16 33 40 46 55 51 44 46 58 65 58 58 67 64 63 68 64 58 64 70 65 59 56 58 72 84 81 79 70 46 37 45 40 30 26 21 19 20 15 9 7 6 4 4 5 5 5 4 5 7 9 12 14 14 15 16 18 20 19 18 16 13 14 21 27 28 29 32 33 30 29 31 30 27 22 18 21 24 19 13 10 7 6 6 6 5 6 6 5 5 5
8 9 12 13 13 11 19 35 41 48 53 48 48 51 56 58 53 56 59 50 54 61 57 53 56 63 65 64 64 66 71 75 76 82 77 54 39 41 38 31 27 22 18 18 16 11 7 6 4 4 5 4 4 5 5 6 8 10 12 13 15 17 18 19 18 16 14 12 14 20 23 24 25 25 27 28 28 29 23 18 17 16 17 18 16 14 10 8 7 6 6 5 5 5 5 5 5
5 7 11 15 16 14 24 36 39 46 50 47 51 51 52 52 41 43 48 48 59 60 52 50 50 58 67 68 69 69 68 67 68 79 81 61 43 39 38 34 30 26 20 17 17 14 9 6 5 4 5 4 4 5 5 6 8 9 10 11 13 14 16 17 16 15 12 11 14 18 20 22 22 21 23 24 25 24 19 15 16 15 12 9 12 14 10 8 7 6 6 6 5 5 4 5 5
5 6 9 15 18 16 24 36 37 41 45 48 55 50 51 56 43 39 44 48 57 51 42 49 56 64 69 65 65 66 69 73 73 80 81 61 48 46 42 39 37 32 25 19 17 16 12 8 6 4 4 5 4 4 5 6 7 7 8 9 11 13 15 16 15 13 11 11 13 16 18 19 19 20 21 22 21 20 17 14 13 12 9 6 7 8 6 6 8 8 7 7 9 8 6 6 7
7 8 8 10 17 18 21 28 31 37 41 44 52 48 46 53 48 48 48 42 44 37 34 53 68 69 59 47 51 59 63 69 73 81 83 68 57 54 49 47 45 38 31 23 19 18 14 9 6 4 4 4 5 5 5 6 6 5 6 8 10 12 14 15 14 12 10 10 11 14 16 16 17 18 18 18 17 16 13 10 8 7 7 6 5 5 5 6 8 9 7 6 10 9 8 9 10
6 8 9 8 12 16 18 21 21 28 34 38 46 43 37 39 37 40 38 30 31 25 29 58 71 59 38 23 37 56 56 59 69 79 85 80 69 59 52 53 51 44 35 27 21 18 14 11 8 5 4 4 5 5 5 6 5 4 5 7 9 11 13 14 14 12 10 9 10 12 14 15 16 15 15 15 14 12 10 8 6 5 5 5 6 8 6 6 8 9 7 6 8 9 9 9 9
7 8 9 8 9 11 14 17 17 19 24 31 40 37 29 29 27 24 19 17 21 16 24 56 70 56 32 16 29 51 52 52 63 74 81 80 72 63 55 54 55 50 40 34 29 22 15 12 10 7 4 4 4 4 5 5 4 4 5 6 8 10 11 12 13 11 10 10 10 11 13 14 14 13 13 12 11 9 8 7 5 5 5 5 6 7 6 6 7 8 8 8 9 9 8 8 7
6 6 8 9 9 9 10 12 14 15 17 25 37 35 25 22 22 17 12 11 13 10 14 34 48 43 28 19 27 40 44 46 54 66 77 76 70 67 62 58 59 55 46 40 36 30 22 15 11 9 6 4 4 4 5 5 4 4 4 5 7 9 10 11 11 10 9 9 9 10 12 12 12 12 11 10 9 9 8 7 6 5 5 6 5 6 6 6 7 7 8 8 8 7 6 6 7
7 6 6 8 9 9 9 9 9 10 11 18 31 36 27 19 17 14 11 9 7 7 8 13 17 17 17 25 33 36 39 44 50 63 73 73 70 70 68 65 64 62 55 46 38 32 27 19 13 10 8 6 4 3 4 5 4 4 4 5 6 7 9 11 11 9 8 8 8 9 10 10 10 10 9 9 8 8 8 6 5 5 5 5 5 5 5 6 6 6 7 7 7 6 6 6 7
7 7 6 7 8 8 8 7 6 6 7 11 20 30 28 18 13 12 9 8 8 9 10 10 8 6 9 19 30 39 44 44 51 62 67 70 73 71 70 68 65 65 62 52 40 31 25 20 14 11 9 7 5 4 4 5 4 4 4 4 6 7 8 10 10 9 7 7 7 8 8 8 9 8 8 8 8 8 7 6 5 5 5 4 4 4 4 5 5 5 6 6 7 7 6 7 7
16 13 10 8 8 8 8 7 6 6 5 9 15 24 26 18 13 16 16 15 14 12 12 12 11 7 5 7 17 34 43 44 49 53 53 62 70 67 65 66 65 65 64 56 42 30 23 19 14 11 10 8 7 5 4 4 4 4 4 4 5 6 7 9 10 8 7 7 6 7 7 7 7 8 8 7 7 7 6 6 5 4 4 4 4 4 4 4 4 4 5 5 7 7 7 7 7
26 20 16 16 13 12 13 11 11 10 8 9 12 15 17 14 12 16 19 18 16 14 14 15 14 12 9 6 7 17 29 40 46 41 40 51 57 55 56 63 66 65 64 59 45 32 27 21 14 10 9 9 8 6 5 4 4 4 4 4 5 6 6 8 9 9 7 6 6 6 6 7 6 6 7 7 6 7 6 6 5 4 4 4 4 4 4 4 4 4 5 5 7 8 8 9 8
34 25 23 22 17 17 20 20 18 18 17 15 12 10 9 9 11 13 15 14 13 15 18 18 16 15 14 10 6 6 12 21 28 31 40 45 42 40 46 59 67 67 67 64 52 40 32 24 15 9 8 9 8 7 6 4 4 5 4 5 4 5 6 7 8 9 8 6 5 6 6 6 6 6 6 6 6 6 6 6 5 4 4 4 4 4 4 4 4 5 7 8 10 13 14 15 13
35 31 30 24 19 19 20 23 23 21 25 24 17 14 14 19 31 38 39 40 41 42 42 42 42 38 28 18 11 7 5 8 17 31 42 40 35 34 40 55 66 69 72 72 62 50 37 27 20 11 7 9 9 8 7 5 4 4 4 5 5 5 5 6 8 8 8 7 5 5 6 6 6 6 5 6 6 6 5 5 5 4 4 4 4 4 4 4 5 8 11 14 17 21 23 23 22
17 20 24 20 24 31 26 23 23 20 23 25 18 19 30 43 56 63 60 57 57 60 61 59 61 60 48 31 19 12 6 8 20 37 45 39 31 29 37 53 62 66 73 76 68 56 43 32 25 17 10 7 8 9 7 5 5 4 5 5 4 5 5 5 7 7 8 7 5 5 5 5 5 5 5 5 5 6 5 5 5 4 4 4 4 3 4 6 9 14 18 20 21 24 25 26 26
13 20 29 30 36 43 35 24 25 24 27 29 22 28 54 65 59 61 63 55 50 55 63 63 60 63 60 44 31 21 9 5 13 25 33 30 21 22 38 53 56 60 72 79 72 62 54 42 30 23 15 8 6 8 7 6 5 4 4 5 4 4 5 5 6 7 7 8 7 5 5 4 4 5 5 6 5 5 5 4 4 4 4 4 4 3 6 10 16 20 21 22 22 23 24 24 25
22 35 44 44 43 40 29 23 27 29 33 36 27 33 65 74 58 61 65 55 48 47 52 56 54 61 66 55 44 36 19 8 7 9 14 13 8 21 44 54 55 60 69 77 76 67 61 51 37 28 21 13 6 5 7 6 6 6 4 4 5 4 5 5 5 6 7 8 7 6 5 5 4 5 5 5 5 5 5 4 4 4 4 4 3 5 10 16 21 22 22 23 23 22 23 24 24
31 38 39 38 35 27 23 24 27 26 28 31 23 31 63 71 61 68 68 58 53 42 37 43 46 60 72 64 55 49 34 18 8 6 13 13 12 30 49 52 55 61 63 69 75 70 64 59 47 35 27 20 10 4 6 7 6 6 5 4 5 4 4 5 4 5 6 7 8 6 6 5 5 6 6 6 6 5 5 5 4 4 4 4 4 8 15 20 21 22 22 23 23 23 24 25 25
Wind_Speed
4 5 6 6 5 5 4 2 4 5 7 8 9 10 7 4 9 7 9 12 14 14 14 15 13 13 11 10 11 8 9 8 9 8 6 6 4 5 7 8 8 9 10 9 9 10 9 9 10 11 11 11 10 10 10 11 11 10 10 10 10 11 11 10 10 9 9 9 9 9 8 8 7 7 7 8 7 7 8 8 8 9 9 8 8 7 7 7 7 7 8 8 8 8 8 9 8
5 6 6 6 6 6 5 4 5 7 9 9 11 9 4 8 9 9 12 14 14 13 13 14 12 11 10 11 9 7 10 8 8 10 8 7 5 3 5 7 8 8 9 10 9 10 10 10 11 11 11 10 11 10 10 11 10 10 10 10 11 11 11 10 10 9 9 9 9 9 8 8 7 7 7 7 8 8 7 7 8 8 8 7 7 7 6 6 6 7 8 9 9 9 9 9 8
6 6 7 7 7 7 6 6 7 9 10 9 10 5 6 9 11 13 14 15 13 12 12 12 11 10 10 11 7 6 10 9 7 9 9 8 7 3 3 7 7 7 9 10 10 10 10 11 11 11 11 11 11 11 11 11 11 11 11 11 11 11 10 10 10 9 9 9 9 9 8 7 7 6 6 7 7 7 7 7 7 7 7 7 7 6 6 6 7 8 9 9 9 9 9 9 8
5 6 7 7 8 7 7 8 9 9 10 9 9 4 6 8 13 14 14 15 14 13 12 11 9 10 10 10 7 7 9 10 6 6 10 9 7 6 4 6 7 7 8 9 10 10 10 11 12 12 11 11 11 11 11 11 11 12 11 11 11 11 10 10 10 10 9 9 9 9 8 8 7 6 6 6 6 7 7 7 7 8 7 7 7 6 7 7 8 8 9 10 10 10 10 10 10
4 6 7 7 8 7 8 8 9 10 9 9 9 5 8 8 13 13 14 16 15 15 14 12 9 9 9 8 8 8 10 11 6 4 10 10 6 7 6 6 7 7 8 8 9 9 10 11 12 12 12 11 11 11 11 11 12 12 11 11 11 11 11 10 10 10 10 10 10 10 9 9 8 7 6 6 6 7 7 7 7 7 7 6 6 6 7 8 9 9 10 11 10 11 12 12 12
3 4 6 7 7 8 8 8 10 10 9 8 8 5 10 7 12 13 14 16 15 16 15 13 9 9 8 6 6 7 8 10 9 3 8 12 6 7 7 7 7 7 8 8 8 9 9 11 12 12 12 12 11 11 12 12 12 11 11 11 11 11 10 10 10 10 11 11 11 11 10 10 9 8 7 7 7 7 8 8 7 7 7 6 6 6 8 9 10 10 11 12 12 13 14 14 14
4 5 6 6 6 7 9 9 10 10 9 7 5 5 9 9 13 13 14 14 14 14 14 12 8 10 10 7 7 7 5 7 10 6 6 13 8 6 8 7 7 7 8 8 8 8 9 10 12 12 12 12 11 11 12 12 12 11 11 11 11 11 11 11 11 11 11 12 12 12 12 11 11 10 9 9 8 8 8 8 8 8 7 7 7 7 9 10 10 11 13 13 13 15 15 15 15
4 4 4 5 5 7 9 10 10 10 9 8 4 5 9 11 14 13 14 14 13 13 12 11 9 11 9 6 8 7 4 6 10 8 8 13 9 7 8 7 7 8 8 8 8 8 8 10 12 13 12 12 12 12 11 11 11 11 12 12 11 11 11 12 12 12 12 13 13 14 14 13 12 12 11 11 11 10 10 9 9 9 9 9 8 9 11 11 11 13 14 14 15 16 16 17 17
3 3 3 3 4 5 9 11 10 10 11 8 3 7 10 12 15 14 14 14 12 13 11 10 8 10 10 7 8 8 5 6 8 8 10 12 9 8 7 7 8 9 9 9 8 8 8 10 12 12 12 12 12 12 11 12 12 12 12 12 12 12 12 13 13 14 14 14 14 15 15 14 13 13 13 13 13 12 11 10 10 10 10 10 10 11 12 13 13 14 15 16 16 17 18 18 19
2 3 3 2 3 5 9 10 11 10 9 4 6 10 12 14 15 15 14 14 12 12 10 8 7 8 11 9 7 8 7 7 8 8 9 11 10 8 8 7 7 9 10 9 8 8 8 9 11 12 11 11 12 12 12 12 13 13 12 12 13 14 14 14 14 15 15 15 15 15 15 15 14 14 14 14 14 13 12 12 11 11 12 12 12 12 13 14 14 15 16 17 17 17 18 19 20
3 2 2 3 3 5 10 11 11 9 5 2 9 11 13 14 14 15 14 14 12 11 9 8 8 7 10 9 6 7 7 7 8 8 9 10 9 8 8 8 7 8 9 10 9 8 8 9 11 11 11 11 12 12 12 13 13 13 13 13 14 15 15 15 15 15 15 15 16 16 15 15 15 15 15 14 14 14 14 13 13 13 13 13 14 14 15 15 15 16 17 17 17 17 19 19 19
3 3 2 3 3 5 10 12 10 3 1 3 8 9 11 13 15 15 14 14 13 12 10 8 9 8 9 8 6 6 6 6 7 8 9 9 9 8 8 8 8 7 8 9 10 8 8 10 11 11 11 11 11 12 13 13 13 13 13 14 15 15 16 16 16 16 16 16 16 16 16 15 15 16 15 15 15 15 15 15 15 14 15 15 15 15 15 16 16 16 16 16 16 17 18 19 19
4 3 2 3 4 5 8 11 10 6 4 4 6 9 10 11 14 15 14 14 13 12 12 9 9 8 8 8 6 6 5 6 7 7 8 8 8 8 7 8 8 8 8 8 9 9 8 9 11 11 11 11 11 12 13 13 13 14 14 14 15 15 16 16 16 16 16 16 16 16 16 16 16 16 16 16 16 16 16 16 16 15 15 15 15 15 15 16 16 15 15 16 15 15 16 16 17
4 3 2 2 4 6 7 9 9 7 4 2 5 10 12 12 13 14 15 14 12 12 12 10 9 8 8 9 7 7 5 6 6 6 7 7 8 8 8 8 8 8 8 8 8 8 8 9 11 12 12 11 11 11 12 13 13 14 14 14 15 15 16 16 16 16 16 16 17 17 16 16 16 17 17 17 17 16 17 17 17 16 15 15 15 15 15 15 15 14 14 15 14 14 14 14 15
4 3 4 3 3 6 7 7 6 5 6 2 4 8 10 11 12 12 14 14 12 11 10 8 9 9 9 9 8 8 7 6 6 6 8 7 7 7 8 8 8 8 8 8 8 8 8 9 11 12 12 11 11 11 12 12 13 14 14 14 14 15 15 15 15 15 15 15 16 17 16 15 16 17 17 18 18 17 18 18 17 17 16 16 15 15 15 15 15 14 14 14 14 13 13 13 13
5 4 5 5 4 5 5 6 5 5 7 5 3 5 7 9 10 10 12 13 11 12 9 6 8 9 8 8 8 9 8 6 6 7 8 8 7 7 7 7 7 7 7 7 8 8 8 9 11 12 12 11 11 11 11 12 13 14 14 14 14 14 14 14 15 14 15 15 16 17 15 15 16 17 17 18 18 18 18 18 18 18 17 16 15 15 15 15 15 14 13 13 13 13 13 13 13
6 5 8 7 5 5 4 4 6 6 7 6 1 3 5 8 8 9 10 11 11 12 9 6 6 8 7 7 7 9 9 7 7 7 8 7 7 7 7 7 7 7 7 7 7 7 8 9 11 12 12 11 11 11 11 12 13 14 14 14 14 13 14 14 14 14 15 16 16 16 15 15 15 16 17 17 19 19 19 19 18 18 17 16 15 15 14 15 15 15 14 13 13 13 13 13 14
8 9 11 8 6 6 4 4 5 6 8 9 5 2 3 7 9 11 10 10 12 12 10 8 7 6 7 7 7 8 8 7 7 8 8 7 6 6 7 7 7 7 6 6 6 7 8 9 11 12 13 12 11 10 11 12 14 14 13 14 14 13 13 13 13 14 15 16 16 16 15 15 15 15 16 17 18 19 20 20 19 18 18 17 16 15 14 14 14 15 14 13 12 13 13 13 13
11 11 10 7 8 7 4 5 4 4 6 10 8 3 1 5 9 12 12 11 12 11 11 10 8 7 7 6 7 8 8 7 7 8 8 7 5 5 6 6 7 6 6 5 5 7 8 9 11 13 13 12 11 10 11 13 14 14 13 13 14 14 13 13 13 14 14 16 16 15 15 15 15 14 15 17 18 18 19 19 19 19 19 18 17 17 16 15 15 15 15 14 13 13 13 12 13
13 12 10 9 10 7 5 6 2 4 5 8 9 6 2 4 8 12 14 14 13 11 11 11 8 8 8 7 7 8 7 7 6 7 8 7 5 5 5 5 6 7 6 4 4 7 9 9 11 13 13 12 11 10 11 13 15 14 13 13 13 14 14 13 13 14 15 15 15 15 15 16 15 15 15 16 17 17 18 18 18 18 18 18 18 18 18 17 17 17 17 16 15 14 14 14 14
16 14 12 11 11 7 6 6 1 4 4 6 8 9 6 4 7 12 14 14 13 12 12 10 7 8 8 7 8 8 7 7 6 6 7 7 6 5 5 4 6 6 6 5 4 7 9 10 11 13 13 12 11 10 11 13 15 15 14 13 13 13 14 13 14 15 15 15 14 14 15 16 16 15 15 15 16 16 16 16 17 17 17 18 18 18 18 19 18 18 18 18 17 17 16 16 15
18 16 14 12 11 9 8 7 4 1 3 5 7 8 8 7 5 10 12 13 13 13 12 10 8 7 7 7 8 7 7 7 6 6 6 7 6 5 5 5 5 6 6 5 5 7 9 10 11 12 13 13 11 10 10 12 14 15 14 13 14 13 13 13 13 14 14 14 14 13 14 16 16 15 15 15 15 15 15 15 16 17 17 17 18 18 18 19 19 18 18 18 17 17 17 17 16
18 17 15 13 11 10 10 8 5 2 2 3 4 7 7 7 4 7 11 11 13 12 10 8 7 7 5 5 6 7 7 7 6 5 5 7 7 5 5 5 6 6 6 5 6 8 10 10 11 12 13 13 11 10 10 13 15 15 14 14 14 13 12 12 12 13 13 13 13 13 13 14 14 14 15 15 14 15 15 15 15 16 17 17 18 18 18 18 18 18 18 17 16 16 17 17 17
18 17 16 14 13 12 11 9 6 3 3 2 2 5 6 6 5 2 8 10 11 11 8 7 6 5 5 4 5 6 7 8 6 6 5 6 6 5 5 5 6 7 7 6 7 9 10 10 11 12 12 12 11 10 10 13 15 15 14 14 14 12 12 11 12 12 12 12 12 12 13 13 12 13 14 14 14 14 14 14 15 15 16 17 17 18 18 17 17 17 17 16 15 15 16 17 17
18 18 18 16 15 14 12 9 7 6 3 1 2 4 5 5 5 1 7 8 7 8 8 8 6 5 4 4 4 5 6 7 6 6 6 6 6 6 5 5 6 7 6 6 7 8 9 8 10 12 12 12 11 11 11 13 15 15 14 14 14 12 11 11 11 11 11 11 11 12 12 12 12 13 14 13 13 13 13 14 15 15 16 16 16 17 18 17 17 17 16 15 15 15 16 16 17
20 20 20 18 16 14 13 10 8 7 5 3 2 2 3 4 5 4 5 6 6 8 10 8 5 4 4 4 4 4 5 5 5 6 5 5 5 6 6 6 6 7 6 6 7 8 8 7 10 12 12 12 12 11 12 13 14 14 14 14 13 12 11 11 11 11 10 10 10 11 12 12 13 14 14 13 12 12 13 14 15 15 15 16 16 17 17 17 16 16 15 15 14 14 15 15 16
21 20 18 17 16 14 13 10 8 7 5 3 1 2 2 2 5 4 4 5 10 12 10 7 4 4 3 3 3 3 4 4 5 5 5 5 5 6 7 7 6 7 6 6 7 8 7 7 9 12 12 12 12 11 12 13 14 14 13 13 13 11 11 11 12 11 11 10 10 11 12 13 14 14 13 13 12 12 13 13 14 15 15 15 16 16 17 17 16 15 14 14 14 14 15 15 15
18 15 13 13 13 14 13 9 7 7 5 4 4 4 3 1 2 3 4 5 9 10 7 5 4 3 2 2 3 2 3 3 3 3 3 4 5 5 6 7 7 7 6 6 7 8 7 7 10 12 12 12 12 12 13 14 14 14 13 13 12 11 10 11 11 11 10 9 9 10 11 12 13 13 13 13 12 12 12 13 14 15 14 14 15 15 16 17 16 16 15 14 14 14 15 15 15
17 14 12 11 10 13 14 10 9 8 7 6 7 5 4 3 2 2 3 3 5 6 5 4 3 2 2 2 2 1 2 2 2 2 2 3 5 5 5 6 6 7 6 6 7 8 7 7 10 12 13 12 12 12 14 15 14 14 13 12 11 10 10 10 10 11 10 9 9 10 11 12 13 12 12 12 12 11 12 13 13 14 14 14 14 15 16 16 16 16 15 15 15 15 15 15 15
17 16 15 12 10 11 13 12 11 9 7 8 8 7 6 5 3 1 0 1 2 3 4 4 3 3 3 2 2 2 2 2 2 2 2 3 5 5 5 6 6 7 7 7 7 8 8 8 10 12 13 12 12 13 14 16 15 14 13 12 11 10 10 9 8 9 9 9 9 9 10 11 11 12 12 12 11 11 11 12 13 13 13 13 14 14 15 15 16 15 15 15 14 14 15 15 15
16 15 13 12 11 10 11 13 10 6 6 7 8 7 7 7 6 4 4 2 2 2 3 4 5 5 4 3 3 3 3 2 1 1 2 4 5 6 6 6 6 7 7 7 7 7 8 8 9 12 13 12 12 14 15 16 16 15 13 12 11 10 10 10 8 8 9 9 9 9 10 10 11 11 12 12 11 11 11 11 11 12 12 12 13 14 14 14 15 15 14 14 13 14 14 13 14
15 14 12 11 11 11 10 12 9 5 6 6 6 6 6 7 7 6 6 5 4 4 5 5 6 6 5 4 3 3 3 2 1 1 3 4 6 6 6 6 7 7 7 7 7 7 8 8 8 10 12 12 13 15 16 16 16 15 13 12 11 10 10 10 9 8 9 8 8 8 8 9 10 11 12 12 12 12 11 11 11 11 11 11 12 12 13 13 14 15 14 13 13 13 12 12 13
14 15 15 14 14 13 12 11 10 7 6 5 5 5 5 5 5 5 6 6 5 6 7 7 6 6 6 5 4 4 3 3 2 2 3 4 6 7 7 6 7 7 8 8 8 7 8 8 8 10 12 13 14 15 17 17 16 15 13 11 11 10 9 9 9 8 9 8 7 7 8 8 9 11 11 12 12 12 11 10 10 10 10 10 11 11 11 12 12 13 13 13 13 13 11 11 12
15 16 18 19 19 17 15 13 13 10 7 7 7 5 4 3 3 4 5 4 5 8 9 8 7 7 6 6 6 5 4 4 4 4 4 5 7 8 7 7 7 7 8 9 9 8 8 8 9 10 12 13 14 16 18 18 17 15 12 11 10 10 9 8 8 9 8 8 8 8 9 8 8 10 11 11 12 12 11 11 10 10 10 10 10 10 10 11 11 11 11 11 12 12 11 10 11
18 19 20 22 24 23 19 15 14 12 11 12 11 8 7 6 3 3 3 3 5 8 8 8 7 8 7 7 6 5 4 5 5 5 5 6 7 7 7 7 8 8 8 9 10 9 9 8 9 11 12 14 15 17 19 19 17 15 12 10 10 10 9 8 8 8 8 8 9 10 10 10 9 10 10 11 11 12 12 11 10 10 10 10 10 11 11 10 10 11 10 10 10 10 10 10 11
20 20 20 21 23 24 23 20 16 13 14 14 13 11 11 10 5 1 1 3 6 7 7 7 7 8 8 6 6 6 5 6 6 6 6 7 7 7 7 7 8 8 9 9 10 10 10 10 11 12 14 15 17 18 19 19 17 15 12 11 11 10 9 8 8 8 8 8 10 11 11 11 10 10 10 11 11 11 11 11 10 10 11 11 11 12 11 10 10 10 10 10 10 10 10 10 11
20 19 17 17 20 23 24 23 16 12 15 14 13 13 12 12 6 2 1 1 5 7 6 8 8 8 8 7 7 7 7 8 8 7 7 7 7 7 6 6 8 8 9 10 11 11 11 11 12 14 15 17 18 19 20 19 17 15 13 12 11 11 10 9 8 8 7 8 10 12 12 11 11 11 11 11 11 11 12 11 10 11 12 13 13 12 12 11 11 10 10 10 11 11 10 10 11
22 20 16 16 18 20 23 22 17 14 15 13 13 13 12 12 7 2 1 2 3 5 6 7 10 10 9 8 8 7 7 8 8 8 7 7 6 6 5 6 7 9 10 11 11 12 11 12 13 15 17 18 19 20 19 18 17 14 12 12 12 11 11 9 8 7 7 8 10 12 13 12 12 11 11 11 10 11 12 12 11 11 12 13 13 12 12 12 12 12 11 11 12 12 11 11 11
23 21 20 19 18 18 21 22 21 20 18 16 15 12 10 9 7 5 4 3 3 5 6 7 10 11 10 9 9 7 7 8 8 9 8 7 7 6 6 6 8 9 10 10 10 11 11 12 14 16 17 19 19 20 19 17 15 13 12 11 10 10 10 9 8 7 7 8 10 12 13 12 12 11 11 11 10 11 12 12 11 11 11 12 12 12 12 13 13 13 12 12 13 12 12 11 12
25 22 20 20 18 18 20 23 24 23 22 21 18 13 10 10 11 9 7 7 7 7 8 8 10 10 10 10 9 8 7 7 8 9 8 8 8 7 6 7 8 8 9 10 10 11 12 12 14 17 18 19 19 18 18 16 14 13 11 10 9 8 9 8 8 7 7 8 10 12 13 12 11 11 10 10 10 11 12 12 11 11 11 11 11 12 12 13 13 13 13 13 13 12 12 11 11
26 24 20 19 18 17 21 25 24 23 23 21 17 16 16 15 15 12 10 11 9 8 9 9 10 10 9 9 8 8 6 4 6 8 8 8 8 9 8 7 7 7 9 11 12 12 12 13 14 17 19 19 19 17 16 15 13 12 11 10 9 8 9 8 8 8 8 8 10 11 12 12 11 11 11 10 10 11 11 11 10 10 10 10 10 11 12 13 13 13 13 13 13 12 11 11 10
28 25 20 18 17 18 22 27 25 24 25 23 20 20 19 18 17 14 14 13 9 9 11 10 10 10 8 7 6 6 6 6 6 7 9 10 10 10 9 8 7 6 8 11 13 13 12 12 13 16 18 19 18 17 16 15 14 13 13 12 11 11 10 9 9 9 9 9 10 10 11 11 11 11 11 11 11 11 11 10 10 10 10 9 9 10 11 12 13 12 12 12 11 10 10 9 9
28 26 22 20 20 21 25 29 28 27 26 23 21 21 20 21 20 17 17 15 11 12 13 10 10 10 8 6 5 5 6 7 8 7 9 12 10 9 10 8 7 7 7 9 12 13 13 12 13 15 17 18 17 17 16 15 14 15 15 14 12 11 11 10 9 9 9 10 10 10 11 10 10 11 11 11 11 10 10 10 10 10 10 10 10 10 10 11 11 11 11 10 9 9 8 9 9
26 26 25 24 25 26 29 33 32 32 29 24 21 23 23 22 20 19 20 19 17 16 13 10 9 9 7 5 4 4 5 6 7 7 8 11 10 10 10 10 9 8 7 7 11 14 14 14 14 14 16 17 17 17 16 15 15 15 15 14 12 10 10 10 10 10 10 10 10 10 11 11 11 11 11 11 10 10 10 10 10 9 10 10 9 9 10 10 9 9 9 8 8 8 9 10 10
26 25 27 28 28 29 31 34 34 34 35 31 27 28 27 26 23 23 24 23 22 18 12 10 10 10 7 4 5 6 6 6 7 7 9 11 11 11 11 12 10 9 8 7 10 13 15 15 15 15 15 16 17 16 16 16 15 15 15 14 12 10 10 10 10 11 11 11 11 11 11 11 12 12 12 11 10 9 9 9 10 9 9 9 9 9 9 8 8 8 8 8 9 9 10 10 11
29 27 28 29 30 31 32 34 35 37 38 35 33 33 33 31 29 29 28 26 24 19 13 12 14 13 7 6 8 8 7 8 8 8 10 11 12 12 13 13 11 9 8 8 9 10 14 15 15 15 16 16 17 16 16 15 15 14 14 14 13 12 11 12 12 11 11 11 11 11 12 12 13 13 12 10 9 8 8 8 9 9 9 9 9 9 8 8 9 9 9 9 10 10 10 11 11
33 31 30 30 31 33 34 35 35 37 38 35 34 35 35 34 33 31 27 24 22 18 14 15 17 16 11 9 9 10 9 9 9 9 11 12 12 13 12 11 10 9 8 8 8 8 11 14 16 16 16 17 17 17 16 15 15 14 14 15 14 13 12 13 13 13 12 12 12 12 12 13 13 12 12 10 9 8 7 8 8 8 9 9 9 9 9 9 10 10 10 10 10 10 10 11 11
34 33 33 32 32 33 35 36 36 37 37 35 34 34 34 33 32 29 25 22 21 17 14 16 18 17 13 9 11 12 11 11 11 10 11 12 12 11 11 9 8 8 7 8 8 9 9 12 16 17 17 17 17 17 17 15 15 14 14 15 15 13 13 14 14 14 14 13 13 13 13 13 13 12 12 11 10 9 8 8 8 8 9 9 9 10 10 10 10 10 10 10 10 10 10 10 10
33 33 34 34 34 34 34 34 35 35 33 33 35 35 34 32 31 29 25 21 19 15 14 16 18 17 13 10 13 13 12 12 11 11 10 10 10 11 11 9 8 8 8 9 10 10 10 12 15 17 17 18 17 18 17 16 16 15 14 15 16 15 13 14 15 14 14 14 14 14 14 14 14 13 12 12 11 10 9 9 9 9 9 8 9 9 10 10 10 10 10 9 10 10 9 9 10
35 34 34 35 35 35 34 33 33 31 29 31 34 37 37 33 29 27 23 19 18 17 17 19 19 18 14 12 14 14 13 12 11 11 10 9 10 11 11 10 10 10 10 11 11 11 11 12 15 17 19 20 19 18 18 18 17 16 16 16 16 16 15 14 15 15 15 15 14 14 15 15 14 14 13 13 12 11 10 10 10 9 8 8 7 8 9 9 9 9 9 9 9 9 9 9 9
34 34 35 35 35 34 33 32 32 30 28 28 32 38 39 34 27 25 23 21 21 20 18 18 18 18 16 14 14 16 15 12 11 11 9 9 10 11 11 11 11 12 12 12 12 11 11 11 14 18 20 21 20 20 19 19 19 18 17 17 17 17 16 15 16 16 16 15 15 15 15 15 15 15 14 14 13 12 11 9 9 8 7 7 7 7 7 8 9 9 9 9 9 9 8 8 8
33 34 35 34 34 33 31 30 31 31 31 30 31 35 35 29 25 25 26 26 24 22 19 19 18 19 19 16 15 15 15 14 13 12 11 12 13 12 11 11 12 13 13 12 11 10 10 10 13 17 20 22 22 22 21 20 20 19 18 18 18 18 17 15 15 16 17 16 16 15 16 16 16 15 15 14 13 12 10 8 7 6 6 6 6 7 7 7 8 9 9 9 10 10 9 9 8
33 34 33 33 34 33 30 30 30 31 32 31 30 29 27 23 20 19 20 20 19 19 18 18 18 19 21 19 16 16 16 15 15 15 14 14 15 14 11 11 12 12 12 12 12 11 11 10 10 15 20 22 23 24 24 23 21 20 19 19 19 19 18 17 16 16 17 17 17 16 16 16 16 16 15 14 13 11 10 8 6 4 4 4 5 6 7 7 8 9 9 10 10 11 11 10 9
34 33 33 35 35 34 34 33 32 32 31 29 27 24 21 17 14 13 13 12 11 12 12 11 10 14 17 17 17 17 16 15 17 18 17 16 13 12 13 13 13 13 13 14 14 13 12 10 9 10 15 20 23 24 25 25 23 22 21 20 19 19 20 19 18 17 17 18 18 17 16 16 16 16 15 14 12 11 9 7 5 4 3 3 4 6 7 8 9 10 11 11 11 11 11 11 10
38 38 38 38 34 31 34 35 34 34 32 29 26 21 17 17 21 21 21 21 20 19 18 14 9 7 9 12 15 18 18 17 18 20 21 19 14 11 12 14 14 14 15 16 16 15 12 10 9 8 11 17 23 25 26 25 24 23 22 22 21 21 21 21 19 18 17 17 18 17 17 17 17 16 15 14 12 10 8 6 5 4 4 4 4 6 8 10 11 12 12 11 11 11 10 10 10
38 38 38 38 35 33 35 35 34 33 31 29 25 20 19 23 26 25 26 27 28 26 24 20 14 8 6 8 12 16 20 20 19 21 22 22 18 14 14 15 15 15 16 17 16 15 13 10 10 9 9 12 18 22 24 24 25 24 24 23 22 22 21 21 21 19 18 17 18 18 18 18 17 16 15 14 12 10 8 6 5 5 5 5 6 7 9 11 13 13 12 11 10 10 9 8 8
36 37 37 37 37 37 38 37 36 34 31 30 27 25 25 27 27 27 29 30 29 28 26 22 17 12 8 8 10 13 17 21 21 20 21 21 19 17 16 15 16 17 18 18 17 16 15 13 11 10 9 9 12 18 22 23 24 25 25 24 23 23 22 21 21 20 20 19 18 18 19 18 18 17 16 14 13 11 8 6 5 5 5 6 8 10 12 13 13 12 11 11 10 9 8 7 6
37 39 39 39 39 39 39 38 39 38 35 34 32 31 30 29 27 28 28 27 26 27 26 23 20 16 11 10 9 10 13 20 23 21 19 19 20 20 18 16 16 16 16 16 17 17 16 14 11 11 10 10 11 14 19 23 24 24 25 25 25 25 24 23 22 21 21 20 19 19 19 19 18 18 17 15 14 12 9 7 5 5 5 6 9 11 13 13 13 12 11 10 9 8 7 7 6
Wind_Direction
172 185 177 172 172 176 192 258 309 312 301 300 299 289 285 182 160 157 145 139 141 144 141 136 132 136 142 120 111 107 96 105 110 114 121 100 88 99 116 119 117 115 113 115 111 109 109 112 116 116 113 109 107 104 102 103 106 110 112 111 109 107 103 103 106 111 114 116 117 118 119 122 127 133 135 133 131 128 129 131 133 133 132 131 126 120 108 96 85 76 72 70 72 76 74 68 63
193 194 184 183 185 193 213 266 302 319 316 309 319 307 217 153 150 148 137 133 135 139 143 138 127 128 125 109 105 96 97 103 102 111 121 108 89 75 108 116 118 116 112 114 112 113 115 116 117 114 111 107 104 102 101 102 105 108 107 106 104 102 102 105 109 110 109 111 111 112 115 119 127 134 138 136 133 131 133 137 139 141 140 138 132 123 112 100 87 78 76 76 81 81 76 71 68
203 199 192 194 199 210 234 272 296 316 321 316 336 338 168 152 148 147 141 135 133 136 139 132 121 129 121 110 110 92 101 110 108 113 117 110 103 96 103 109 114 113 110 114 114 115 117 118 119 115 111 106 103 101 99 99 101 101 99 98 98 98 100 103 103 102 102 103 104 105 107 113 122 130 133 132 133 134 139 144 146 149 149 147 140 128 115 101 89 84 82 83 87 84 79 77 75
208 205 201 205 214 228 251 282 301 310 319 322 332 305 187 159 147 144 145 137 134 136 128 125 134 143 125 115 123 107 107 111 108 115 113 106 108 120 117 110 112 109 108 111 114 115 117 120 121 117 111 105 102 101 99 99 98 95 94 94 94 95 97 98 98 98 97 97 98 100 101 106 111 115 118 122 128 135 140 145 148 151 152 151 144 130 115 105 95 90 90 92 93 88 81 79 78
207 210 211 214 225 245 262 287 300 304 315 324 330 266 201 167 148 140 144 142 138 135 126 135 147 138 119 113 123 112 112 109 105 122 111 107 111 121 123 116 113 110 107 108 112 113 116 122 122 116 111 106 104 102 100 98 95 92 92 91 91 91 93 94 95 95 95 94 95 96 95 97 100 101 103 108 118 126 132 138 141 142 144 144 139 129 119 110 103 99 98 98 95 87 81 79 79
214 223 226 227 234 255 273 289 291 300 313 318 330 235 195 158 148 142 140 140 136 133 130 141 140 126 124 113 104 101 114 110 115 156 113 112 123 127 127 124 118 114 109 108 110 111 116 122 121 116 111 108 105 104 102 96 92 90 89 88 88 89 91 92 93 92 93 93 92 92 89 88 92 93 92 94 101 112 119 124 127 128 131 131 130 127 118 110 106 103 101 98 91 84 81 83 85
220 229 239 247 254 270 281 289 286 296 309 303 317 207 181 147 147 144 138 136 130 128 129 138 134 126 129 116 96 89 103 103 118 154 119 115 134 140 132 132 126 117 111 109 111 113 118 123 122 117 114 110 107 106 102 97 92 90 88 87 88 91 92 92 93 92 92 92 91 89 86 84 85 86 86 87 91 98 106 112 117 119 121 121 122 120 113 109 107 105 103 98 90 84 83 86 88
221 228 243 263 273 288 286 286 287 290 300 294 277 191 165 147 147 145 140 137 131 128 131 140 138 124 118 103 99 98 96 93 114 137 122 118 140 150 139 141 133 121 112 111 113 116 118 124 125 120 117 114 111 109 104 100 94 89 86 88 93 95 96 95 95 93 92 91 89 87 84 82 81 83 84 84 86 92 100 108 113 114 115 117 119 119 115 113 111 108 105 99 91 87 88 88 90
230 248 255 283 301 316 299 286 286 284 300 304 219 170 151 145 149 148 142 138 134 133 137 140 133 119 110 97 98 105 108 99 109 121 115 118 137 147 144 146 135 123 115 113 114 115 116 123 126 123 122 118 114 111 107 101 94 90 89 94 99 100 100 99 97 94 92 89 86 84 81 79 78 79 80 81 82 87 97 106 110 110 112 118 120 120 118 116 114 111 106 100 94 91 91 90 90
235 266 266 309 315 334 324 304 294 284 302 317 151 148 143 146 150 149 144 139 137 132 132 129 119 105 103 103 102 108 114 110 110 109 107 115 130 141 142 142 131 122 118 118 116 112 114 123 128 127 125 121 117 113 107 100 95 94 95 100 103 103 102 99 96 93 90 88 85 82 78 76 75 76 78 80 82 85 92 101 107 109 112 116 118 118 117 117 115 112 107 102 97 95 93 92 91
228 254 277 326 299 327 341 332 308 280 279 205 149 142 144 149 152 152 148 140 136 131 130 130 115 94 95 102 101 105 114 113 109 107 107 114 126 136 138 136 128 119 118 119 117 114 117 125 132 131 127 123 118 114 107 103 101 99 100 103 104 103 100 97 95 92 89 87 85 83 79 76 75 76 79 80 82 84 89 98 105 108 111 114 116 118 118 117 116 113 109 105 101 98 96 94 94
234 243 283 337 312 324 339 341 335 312 173 172 156 144 147 156 158 157 153 143 139 134 134 134 114 102 101 103 103 105 110 105 99 103 112 118 122 131 134 133 127 117 115 116 117 118 119 127 134 133 128 122 117 114 109 107 105 103 102 103 103 101 98 95 93 90 88 86 85 83 80 77 75 77 81 82 82 83 89 97 104 108 111 114 116 118 118 117 116 113 110 107 104 101 98 96 96
242 248 284 344 337 341 337 342 2 39 91 145 152 145 148 164 168 161 156 146 142 138 135 133 115 108 106 104 106 102 103 101 93 91 108 123 125 129 131 130 126 118 114 114 118 119 119 126 134 135 131 123 118 115 111 108 107 105 104 102 102 100 98 96 92 89 86 84 83 82 80 77 76 78 81 81 80 82 87 96 103 107 109 113 116 116 115 114 114 112 110 108 105 102 99 97 97
244 253 267 315 337 346 349 351 4 21 47 115 150 145 152 173 179 169 159 147 145 141 133 131 123 121 120 116 116 107 100 98 90 81 94 116 125 129 132 130 129 123 117 115 119 121 121 127 135 138 133 126 121 119 115 111 110 108 105 103 102 100 99 96 92 89 87 85 83 82 80 79 78 79 80 79 78 79 85 93 101 105 108 112 114 113 112 113 113 112 109 107 105 102 99 98 98
241 252 259 255 304 331 353 2 359 354 6 10 170 147 154 178 185 174 157 148 148 134 119 125 127 127 128 124 123 117 108 98 90 79 83 102 118 127 132 133 132 126 121 119 122 124 124 128 136 139 135 128 123 123 119 114 113 111 107 104 102 100 99 96 92 90 88 86 84 82 80 80 80 81 81 80 79 79 83 89 97 102 106 109 111 110 110 112 112 111 108 105 104 102 100 99 99
237 252 261 249 263 302 341 357 1 353 355 356 194 158 157 179 186 174 151 144 139 121 116 134 135 124 122 121 119 116 110 103 96 84 84 97 113 127 134 135 134 127 122 121 125 130 128 130 136 139 137 131 127 127 122 118 117 114 110 106 102 101 99 95 92 91 90 87 84 82 80 79 81 83 84 84 83 83 84 88 95 101 105 108 109 109 109 111 113 112 109 105 103 102 102 101 100
230 243 251 247 250 273 307 340 14 16 2 12 121 155 157 171 178 169 153 146 134 126 130 141 141 122 114 116 114 111 109 107 100 91 89 97 115 130 138 138 136 130 124 121 126 134 132 132 136 139 138 135 132 129 125 122 120 117 113 108 104 103 100 95 92 91 92 89 86 84 82 81 82 84 86 86 86 86 87 89 93 99 103 107 110 111 112 113 115 115 111 107 105 104 103 102 102
224 233 242 245 251 261 285 303 8 22 13 27 48 69 148 166 167 168 164 150 134 137 139 132 139 123 106 111 112 107 106 106 100 95 92 98 116 130 138 139 136 131 125 122 129 136 133 132 139 141 140 137 136 131 126 125 121 118 114 109 106 104 99 95 92 91 92 91 89 87 86 84 82 84 85 86 86 87 87 88 91 94 99 103 107 110 111 113 115 115 114 112 110 108 106 106 106
228 235 240 246 249 248 264 281 339 20 20 33 40 28 177 162 155 160 162 151 138 143 139 131 143 129 110 111 110 105 100 100 97 97 98 97 108 127 138 138 135 131 126 122 127 138 137 135 141 143 142 140 139 134 129 126 121 118 113 109 108 104 99 94 92 91 92 92 91 90 89 88 85 84 84 85 85 86 87 88 89 92 95 98 102 105 108 110 112 113 115 116 115 112 110 109 108
234 236 236 240 245 244 250 262 355 47 31 35 36 27 49 145 148 151 151 150 142 140 134 133 147 130 118 118 110 105 98 98 95 101 106 101 101 118 133 136 136 132 128 121 122 142 143 142 144 145 144 144 143 137 131 126 122 119 114 110 108 105 100 95 93 91 92 92 92 92 92 91 90 88 85 85 85 86 88 90 91 92 94 96 99 102 106 108 109 111 113 116 117 115 114 112 111
237 237 235 238 242 245 249 245 143 72 33 26 28 29 37 79 141 155 153 154 148 140 135 136 145 124 121 126 115 110 104 102 97 101 113 113 110 119 129 134 137 132 132 125 126 147 148 146 148 148 146 146 144 137 130 126 124 122 117 113 110 105 101 98 95 93 93 93 93 92 93 93 92 90 88 85 84 85 88 90 91 93 95 97 98 101 104 106 107 109 109 111 114 115 115 113 112
236 237 236 240 243 244 247 237 198 154 25 16 17 33 35 41 105 156 158 159 153 142 137 140 137 117 121 130 121 121 115 110 101 99 119 125 121 131 138 143 143 135 136 131 134 149 151 149 150 152 148 145 144 136 129 126 126 123 117 115 112 107 104 101 98 97 97 97 97 95 96 93 90 90 90 88 86 85 86 88 91 93 96 98 99 100 101 103 104 105 105 106 108 110 111 111 109
238 239 236 234 236 240 243 232 206 198 61 28 11 34 33 33 71 151 159 160 151 138 134 138 129 112 121 129 128 134 125 118 109 103 123 131 127 137 146 151 149 142 142 136 139 151 153 151 152 154 150 146 145 138 131 129 129 123 117 116 114 112 108 104 100 99 99 99 99 99 100 96 91 92 92 91 91 90 90 91 94 95 97 99 101 102 102 102 103 102 103 104 105 105 106 107 108
237 243 242 235 227 227 232 224 211 204 120 68 14 31 23 27 35 133 162 155 143 136 134 137 127 114 127 134 136 141 130 125 122 116 128 135 128 134 147 157 154 149 146 138 144 152 152 152 153 155 153 148 145 142 137 133 131 125 120 119 117 115 111 105 102 100 101 100 99 101 102 99 96 97 94 91 91 93 93 95 96 97 99 101 103 105 104 104 104 103 103 103 105 105 104 105 108
231 236 241 239 229 223 227 222 215 214 185 252 329 21 10 23 21 37 149 139 127 125 128 136 134 123 133 143 145 142 131 130 132 130 136 143 139 140 148 156 155 152 146 136 144 150 147 149 154 157 155 150 148 146 141 136 134 128 123 122 120 118 113 108 104 102 101 101 102 104 106 105 103 102 99 95 94 96 97 98 99 100 103 104 106 107 106 106 105 104 105 105 105 106 106 106 107
229 231 235 239 235 228 228 223 218 220 211 236 295 342 346 19 15 26 104 111 113 118 120 124 119 115 133 144 143 137 128 130 132 131 140 149 151 150 148 150 152 152 146 136 139 146 144 146 155 159 157 153 151 148 143 139 135 130 126 125 123 120 117 113 108 105 104 103 105 106 108 109 108 105 102 101 102 102 100 100 100 102 104 107 109 111 111 110 108 106 105 106 105 105 106 106 107
234 238 241 246 247 241 234 226 219 220 215 218 250 265 266 25 19 30 77 101 116 119 116 112 99 103 133 142 137 132 124 129 130 132 149 160 165 160 148 148 153 154 148 136 138 145 144 146 157 160 159 156 153 150 146 142 136 131 129 128 126 123 119 115 111 109 107 107 110 112 111 109 108 107 106 106 108 107 104 102 102 103 104 107 112 116 116 114 112 109 108 108 106 105 105 108 109
237 241 245 248 252 251 240 223 214 207 198 211 219 234 240 263 11 46 79 102 118 120 114 111 109 107 134 145 135 131 125 134 142 143 158 166 173 172 155 149 154 156 151 139 140 147 143 147 160 160 159 160 156 152 148 143 137 133 133 132 129 125 120 118 115 112 109 110 113 114 113 109 107 110 111 111 110 109 108 107 106 106 107 108 112 117 118 117 115 113 111 108 106 106 106 107 109
230 230 232 232 238 250 241 218 207 196 181 201 214 220 227 228 277 45 73 94 117 125 125 127 136 136 156 164 153 167 158 163 180 174 173 170 175 179 164 152 153 156 155 145 143 149 144 146 161 160 160 161 155 153 150 144 139 136 137 135 131 127 122 120 120 117 115 116 118 118 116 113 112 113 113 112 111 111 111 110 110 110 110 110 112 115 117 118 118 117 114 110 107 105 103 102 102
229 227 225 220 218 241 247 231 215 199 185 200 208 210 215 220 235 253 232 146 127 146 150 143 162 180 183 185 179 199 200 192 209 204 197 187 182 183 173 158 152 155 160 152 148 152 146 147 163 163 162 160 153 154 152 146 143 142 141 138 135 132 126 125 126 121 117 119 124 122 118 115 115 114 113 114 115 116 116 114 113 113 112 112 112 112 114 117 120 120 116 112 107 101 99 99 99
230 228 226 219 211 221 244 247 230 201 200 206 205 211 221 224 226 234 245 227 193 215 206 165 172 194 201 193 186 207 220 203 192 203 213 200 190 190 186 172 159 159 164 157 152 155 148 149 162 164 165 160 153 157 154 148 148 146 145 143 140 138 133 132 133 127 122 123 127 125 120 119 119 118 117 119 121 123 122 119 118 117 116 116 115 113 114 116 118 118 117 115 110 105 103 103 101
225 220 217 210 204 206 224 249 249 217 220 219 209 217 222 225 230 241 243 239 243 246 242 216 192 198 203 196 196 214 232 217 176 191 215 206 197 200 200 186 171 167 168 160 157 158 148 147 157 163 166 163 156 159 157 153 151 147 147 146 144 144 139 137 140 136 125 121 123 123 123 125 126 124 121 121 124 125 124 123 123 122 123 124 121 118 117 117 117 118 119 120 116 113 111 108 103
219 212 202 190 190 202 209 233 247 233 234 240 229 226 221 226 243 253 244 241 245 238 239 239 222 207 202 203 211 219 232 223 188 183 194 199 204 206 208 199 182 176 174 163 158 160 151 147 154 160 166 163 159 160 160 156 152 149 149 148 147 147 143 142 143 136 123 120 127 131 132 131 128 124 121 122 124 124 124 126 128 128 131 130 124 121 121 122 123 123 123 123 121 120 118 112 105
213 207 198 188 187 196 200 215 235 230 226 231 224 212 192 195 227 248 255 253 238 234 238 242 239 224 209 209 219 217 216 215 200 189 189 200 210 208 206 204 189 184 183 167 156 159 154 148 151 157 163 163 160 161 160 156 152 151 152 150 150 149 147 149 141 129 126 134 143 144 143 142 135 128 125 126 125 122 124 126 128 129 128 126 123 123 124 125 128 128 129 127 124 123 120 114 108
208 204 199 194 191 192 189 197 222 227 223 221 209 192 165 149 165 230 248 248 229 232 241 243 237 229 221 214 218 218 213 217 212 200 195 205 218 214 204 200 193 190 190 174 160 159 156 152 153 156 162 163 160 161 159 155 152 153 153 152 152 153 152 152 140 131 135 144 148 147 148 150 144 135 131 129 125 122 121 121 121 119 117 118 120 121 121 125 129 132 135 131 125 121 118 114 111
213 215 209 204 203 200 191 189 202 216 223 220 205 194 169 143 116 49 181 228 229 227 236 237 224 222 228 227 227 232 232 232 224 210 200 204 221 225 211 201 195 191 194 184 168 164 160 155 157 158 162 163 160 160 157 154 154 154 154 156 157 157 156 151 143 138 141 146 150 149 150 152 146 138 134 130 125 120 116 113 112 113 116 119 118 117 119 124 128 131 133 130 123 118 115 115 113
215 220 218 217 214 207 199 191 188 208 224 222 209 202 179 150 125 37 11 278 245 231 233 238 233 232 242 249 251 250 246 242 235 225 208 199 215 233 224 209 200 191 195 194 179 171 165 158 159 161 162 163 161 161 158 156 158 158 156 160 161 158 155 153 149 145 144 147 150 151 152 151 146 139 134 131 128 120 114 112 113 117 121 119 115 114 118 123 124 125 126 124 121 117 115 116 114
215 210 205 216 219 208 203 189 174 197 222 227 222 214 192 166 151 169 277 330 264 236 237 247 245 244 251 263 267 262 256 252 248 241 225 202 206 228 230 213 204 195 196 202 191 177 169 160 159 162 164 165 163 162 160 159 161 160 157 161 163 158 155 154 151 146 145 149 151 151 151 149 145 139 135 134 130 123 118 117 118 118 117 114 114 116 120 122 121 121 123 120 117 115 116 115 112
222 212 199 205 213 209 204 189 180 193 207 217 223 223 215 195 187 200 222 254 248 226 226 241 244 242 246 255 262 270 276 270 253 240 227 208 198 209 220 215 211 203 198 206 205 185 172 165 161 163 166 166 165 164 162 162 163 159 156 160 162 157 153 151 148 143 143 151 152 151 151 149 147 141 137 136 134 128 124 122 118 115 113 112 115 119 120 120 118 118 119 115 112 112 113 112 111
224 220 208 201 202 202 195 187 190 196 201 211 215 214 222 224 216 213 223 231 228 226 225 235 244 239 236 242 257 278 289 276 249 237 228 210 193 196 213 219 217 210 198 203 212 198 181 174 167 165 167 167 168 167 163 162 161 158 154 155 157 154 150 150 148 143 144 151 153 154 153 150 149 145 140 138 135 130 125 120 117 115 113 111 113 116 116 115 114 114 114 111 110 110 110 108 107
222 222 215 206 199 191 186 186 189 194 201 212 212 205 209 220 222 221 226 220 215 232 234 239 244 233 228 238 257 273 281 263 238 239 234 212 192 192 205 217 220 218 204 201 208 206 191 183 173 168 169 169 169 168 164 161 159 156 153 148 149 151 152 154 155 150 148 153 156 157 156 153 151 148 143 141 136 132 127 122 120 118 114 113 115 115 114 113 112 112 112 110 108 107 106 104 103
221 220 213 209 198 183 186 190 187 191 203 212 213 208 208 218 223 223 223 213 216 243 241 244 244 228 228 242 252 261 268 260 247 243 232 217 201 192 195 208 218 221 217 210 209 208 199 190 180 173 172 171 170 168 165 163 160 159 159 157 159 163 164 163 161 155 152 155 160 161 159 155 152 149 145 143 138 133 130 127 124 121 119 121 120 117 116 115 114 113 111 107 104 104 102 100 100
219 218 210 205 196 183 186 192 186 187 202 214 218 215 214 220 223 220 219 219 232 244 242 247 239 222 226 235 240 255 268 267 261 250 225 214 209 199 191 196 209 215 220 220 214 210 205 196 187 181 177 173 170 169 169 168 166 167 168 167 168 170 169 168 163 158 156 159 163 165 163 158 154 149 145 142 139 136 135 134 131 126 125 124 122 119 117 116 114 113 108 104 103 101 99 97 99
217 216 210 203 198 189 186 192 191 189 194 202 213 218 217 220 224 222 224 229 235 238 242 242 220 205 208 213 235 259 267 264 264 256 218 203 206 206 199 196 201 205 207 221 220 213 209 201 193 187 182 178 171 171 174 173 172 175 173 169 169 170 169 170 165 161 161 163 167 170 167 161 155 150 146 144 143 142 142 139 134 127 122 122 122 119 115 113 111 109 107 104 103 102 101 102 102
214 213 212 208 204 198 191 193 195 197 197 194 203 217 219 217 218 220 224 227 229 232 236 223 198 188 194 228 260 260 261 261 266 255 212 200 206 207 206 203 202 197 191 205 218 217 213 204 195 190 186 183 176 173 177 178 178 179 175 167 164 167 171 171 166 164 166 166 169 173 169 163 157 152 150 149 149 145 141 136 131 127 124 123 124 121 117 113 109 107 107 106 106 107 107 106 104
214 210 212 211 209 207 202 198 197 201 203 198 202 216 223 223 222 224 227 229 230 230 227 212 196 192 211 277 270 253 258 262 262 244 211 205 210 208 209 207 202 197 189 194 206 215 218 209 199 192 189 188 183 178 179 182 182 181 176 167 162 167 174 172 168 167 168 170 172 173 170 166 161 158 156 155 154 149 142 134 129 128 128 125 123 122 122 118 114 112 111 109 110 110 109 107 103
219 213 211 212 212 212 211 208 203 204 205 202 206 217 224 228 230 233 237 240 240 236 224 211 203 210 247 281 261 249 255 256 256 242 219 212 211 209 213 209 203 198 185 183 190 202 215 212 204 197 191 190 189 184 183 184 185 185 180 170 164 169 177 175 171 170 171 173 175 174 172 170 167 164 163 162 160 155 148 140 134 131 128 125 125 124 123 120 118 118 116 114 113 112 109 105 101
224 220 217 214 213 214 215 214 212 210 207 203 209 219 225 229 233 240 244 245 247 246 235 224 220 232 254 254 236 239 242 246 254 244 223 216 214 212 213 211 208 200 179 170 180 187 200 208 206 200 194 192 192 189 186 185 187 190 184 173 167 169 178 181 175 172 173 174 176 176 177 176 174 172 170 169 168 162 155 148 142 139 133 130 129 127 124 122 121 121 119 118 116 113 109 106 104
227 226 224 221 218 217 218 219 218 219 216 208 210 219 226 229 234 241 245 247 252 258 254 247 243 245 243 222 221 229 227 233 246 242 226 219 220 218 213 207 200 196 185 178 180 183 189 199 203 201 196 194 194 193 189 185 188 192 188 179 173 171 180 186 179 173 172 174 178 181 182 182 180 178 175 174 174 167 160 155 149 145 139 135 132 128 127 126 125 124 122 120 116 112 111 110 111
231 230 229 227 226 224 224 225 225 225 223 216 215 221 226 231 236 243 251 256 257 256 253 253 255 250 238 220 221 222 218 222 232 237 232 220 217 217 215 208 194 194 197 191 188 188 189 194 198 199 197 195 195 196 193 188 187 191 191 185 178 175 181 188 183 175 171 174 181 185 186 186 184 182 180 178 176 172 166 161 155 151 144 136 133 131 130 129 128 128 127 124 119 116 116 117 117
231 231 231 230 229 229 228 231 233 231 227 219 215 221 226 231 236 242 251 256 254 252 248 249 255 256 249 235 225 219 216 218 225 238 242 226 212 212 215 209 196 198 205 200 195 194 190 191 196 198 197 195 195 198 197 194 190 190 191 188 183 179 183 189 186 177 172 174 181 186 189 189 187 185 183 182 180 176 172 168 161 155 148 142 138 135 134 132 131 131 132 130 126 123 123 124 125
225 227 229 230 229 230 229 229 232 234 232 224 217 221 228 231 232 234 240 247 252 255 254 253 257 263 262 252 235 224 220 222 227 238 248 236 221 218 219 215 205 203 207 204 199 199 194 191 196 198 197 195 195 197 198 197 194 192 191 190 187 183 184 191 190 181 177 177 181 186 189 189 187 186 186 186 185 181 177 176 171 162 153 148 143 140 137 135 134 135 136 135 131 129 128 129 131
221 224 226 227 227 227 227 226 227 230 232 229 224 226 230 231 228 229 234 240 245 249 252 257 260 263 265 260 247 231 224 224 227 233 238 233 228 227 222 218 213 206 205 206 204 205 202 194 196 201 200 197 197 198 199 198 196 194 193 192 192 188 185 189 192 188 183 181 182 185 188 189 189 190 190 190 188 185 182 181 182 178 166 156 148 143 141 139 139 141 142 139 135 132 131 131 131
216 221 223 224 224 224 224 223 223 226 229 228 224 223 225 216 195 187 190 188 194 212 224 232 244 256 260 258 251 240 230 223 218 218 220 218 219 222 216 214 214 208 205 208 211 214 209 195 190 199 202 201 200 201 202 200 196 196 195 194 194 193 189 188 192 194 190 185 184 186 187 190 194 194 193 192 191 190 188 188 193 199 194 178 161 151 147 145 145 146 147 144 140 136 135 134 135
220 223 224 224 221 218 220 220 221 224 226 226 222 214 207 186 167 168 174 174 177 188 197 198 204 237 255 250 244 239 233 221 209 206 213 220 221 218 212 209 212 212 209 211 216 221 218 200 183 184 199 205 204 204 206 204 198 196 198 196 196 197 196 191 191 194 194 192 189 189 191 194 196 198 197 196 196 196 196 199 207 216 216 196 178 163 154 150 150 151 152 151 148 144 142 141 141
220 219 221 221 215 212 216 217 219 221 221 221 212 198 192 184 177 181 185 187 190 190 191 193 186 184 217 232 233 233 230 224 214 207 214 226 228 221 213 209 213 214 210 210 217 223 223 209 186 178 188 204 208 208 208 209 204 199 199 199 198 199 201 197 192 191 194 197 196 194 195 197 199 201 203 204 205 205 203 206 216 224 221 202 182 167 158 154 154 155 156 155 155 152 149 148 146
213 210 213 216 214 216 219 218 218 219 217 215 202 189 192 189 184 190 194 197 201 199 199 197 182 173 193 214 221 229 229 226 221 215 218 227 224 212 206 207 211 212 208 209 215 220 222 213 193 181 179 187 202 206 207 210 211 207 203 202 201 201 203 203 198 192 193 199 201 199 199 200 202 204 208 212 215 216 212 210 218 227 221 201 181 167 162 160 158 158 158 157 158 157 156 155 153
212 210 212 215 217 220 223 221 221 220 218 218 207 192 193 191 188 195 198 199 206 209 210 204 188 178 182 193 208 223 227 226 223 218 217 216 208 200 199 202 207 209 207 210 216 220 223 218 202 186 179 180 189 198 203 206 210 212 210 207 205 203 204 205 203 198 196 198 201 204 204 204 206 208 212 217 222 224 222 218 221 230 224 200 182 170 166 165 164 162 161 159 160 161 162 162 163